星链-35888(STARLINK-35888)

导读

STARLINK-35888是美国SpaceX星链互联网卫星项目中的一颗卫星,于2025年12月17日由美国发射升空。它属于星链星座部署计划的组成部分,旨在为全球尤其是偏远地区提供高速低延迟的宽带互联网服务,继承了星链星座标准化设计,助力 SpaceX 完成近地轨道卫星星座组网,拓展全球卫星互联网覆盖范围。

基本信息
目录编号:
67190
目录名称:
STARLINK-35888
国际标识:
2025-303AD
轨道中心:
EARTH
卫星名称:
星链-35888
卫星全名:
星链-35888(STARLINK-35888)
卫星状态:
在轨 (已飞行178 天)
发射日期:
2025-12-17 UTC
国别 :
美国 (US)
星等 :
--
轨道信息
数据来源 国际轨道数据 AOE轨道数据
星历时间 2026-06-11T23:45:52+0800
1天前
查看轨道信息
2026-06-12T00:00:00+0800
1天前
查看轨道信息
半长轴 6861.143km 6861.181km
偏心率 0.0002727 0.0001531
轨道倾角 43.003° 43.002°
近地点辐角 270.987° 281.767°
升交点赤经 140.257° 140.200°
平近点角 89.067° 132.270°
近地点 481.134km 481.993km
远地点 484.878km 484.095km
周期 94.266分钟 94.267分钟
每日圈数 15.275947 15.27582
详细信息
固有亮度:
5
最大亮度:
2.5
卫星平台:
Starlink V1.0
覆盖范围:
全球
运营商:
太空探索技术公司
运营商所在国:
美国
制造商(研发单位):
太空探索技术公司
制造商所在国:
美国
使用方式:
暂无
卫星简介
Starlink 计划是 SpaceX 推出的全球卫星互联网项目,通过发射低轨道卫星,为全球尤其是偏远地区提供高速、低延迟的互联网服务。自 2019 年起,Starlink 已部署数千颗卫星,旨在缩小全球数字鸿沟,推动互联网普及。该项目还为军事、航空等行业提供通信支持,带来广泛经济效益。
2D轨道图
3D轨道图
轨道高度分析图
轨道倾角分析图
轨道综合分析图
查看轨道综合分析图